When you browse on this site, cookies collect data to enhance your experience and personalize the content and advertising you see.
Visit our Privacy Policy to learn more. By continuing to use the site, you agree to this use of cookies and data.
  • In Latvia
  • List of Countries
  • For 7 days
  • Water Temperature
  • Weather Map
  • Weather Widgets
  • user-avatar
    Login

    Hourly Weather Hubyn

    Today, 29 March, Sunday

    Time Temperature Precipitation Wind Pressure Humidity
    00:00 +9°C° 0 mm 1 mps 733 mmHg 65%
    01:00 +8°C° 0 mm 1 mps 733 mmHg 66%
    02:00 +8°C° 0 mm 1 mps 732 mmHg 65%
    03:00 +8°C° 0 mm 1 mps 732 mmHg 67%
    04:00 +7°C° 0 mm 1 mps 732 mmHg 68%
    05:00 +7°C° 0 mm 1 mps 731 mmHg 70%
    06:00 +8°C° 0 mm 1 mps 731 mmHg 68%
    07:00 +9°C° 0 mm 1 mps 731 mmHg 66%
    08:00 +9°C° 0 mm 1 mps 731 mmHg 64%
    09:00 +10°C° 0 mm 2 mps 731 mmHg 59%
    10:00 +13°C° 0 mm 2 mps 731 mmHg 53%
    11:00 +13°C° 0 mm 3 mps 731 mmHg 48%
    12:00 +13°C° 0 mm 3 mps 731 mmHg 47%
    13:00 +14°C° 0 mm 3 mps 730 mmHg 45%
    14:00 +14°C° 0 mm 4 mps 730 mmHg 44%
    15:00 +14°C° 0.1 mm 4 mps 730 mmHg 46%
    16:00 +14°C° 0.1 mm 3 mps 729 mmHg 48%
    17:00 +13°C° 0.1 mm 3 mps 729 mmHg 50%
    18:00 +12°C° 0.1 mm 3 mps 729 mmHg 56%
    19:00 +11°C° 0.1 mm 3 mps 729 mmHg 61%
    20:00 +10°C° 0.1 mm 3 mps 730 mmHg 67%
    21:00 +9°C° 0 mm 3 mps 730 mmHg 69%
    22:00 +9°C° 0 mm 3 mps 730 mmHg 72%
    23:00 +8°C° 0 mm 3 mps 730 mmHg 74%

    Tomorrow, 30 March, Monday

    Time Temperature Precipitation Wind Pressure Humidity
    00:00 +8°C° 0 mm 3 mps 730 mmHg 77%
    01:00 +7°C° 0 mm 3 mps 730 mmHg 80%
    02:00 +5°C° 0 mm 3 mps 730 mmHg 84%
    03:00 +5°C° 0 mm 3 mps 730 mmHg 87%
    04:00 +4°C° 0 mm 3 mps 730 mmHg 90%
    05:00 +4°C° 0 mm 3 mps 730 mmHg 94%
    06:00 +4°C° 0 mm 3 mps 731 mmHg 92%
    07:00 +4°C° 0 mm 3 mps 731 mmHg 90%
    08:00 +5°C° 0 mm 3 mps 732 mmHg 88%
    09:00 +4°C° 0.3 mm 4 mps 732 mmHg 89%
    10:00 +2°C° 0.3 mm 5 mps 733 mmHg 91%
    11:00 +1°C° 0.3 mm 5 mps 733 mmHg 93%
    12:00 +1°C° 0.2 mm 6 mps 734 mmHg 92%
    13:00 -1°C° 0.2 mm 6 mps 734 mmHg 91%
    14:00 -1°C° 0.2 mm 6 mps 735 mmHg 91%
    15:00 -1°C° 0 mm 6 mps 735 mmHg 85%
    16:00 -1°C° 0 mm 6 mps 735 mmHg 80%
    17:00 -1°C° 0 mm 6 mps 736 mmHg 74%
    18:00 -2°C° 0 mm 6 mps 736 mmHg 74%
    19:00 -1°C° 0 mm 5 mps 737 mmHg 74%
    20:00 -1°C° 0 mm 5 mps 737 mmHg 74%
    21:00 -2°C° 0 mm 4 mps 738 mmHg 76%
    22:00 -2°C° 0 mm 4 mps 738 mmHg 78%
    23:00 -2°C° 0 mm 3 mps 738 mmHg 79%

    Day after tomorrow, 31 March, Tuesday

    Time Temperature Precipitation Wind Pressure Humidity
    00:00 -2°C° 0 mm 3 mps 738 mmHg 76%
    01:00 -2°C° 0 mm 3 mps 739 mmHg 74%
    02:00 -2°C° 0 mm 3 mps 739 mmHg 71%
    03:00 -4°C° 0 mm 4 mps 739 mmHg 69%
    04:00 -4°C° 0 mm 4 mps 739 mmHg 67%
    05:00 -4°C° 0 mm 4 mps 740 mmHg 65%
    06:00 -4°C° 0 mm 4 mps 740 mmHg 60%
    07:00 -3°C° 0 mm 4 mps 740 mmHg 55%
    08:00 -4°C° 0 mm 5 mps 741 mmHg 50%
    09:00 -2°C° 0 mm 4 mps 741 mmHg 48%
    10:00 -1°C° 0 mm 4 mps 741 mmHg 46%
    11:00 0°C° 0 mm 4 mps 741 mmHg 44%
    12:00 0°C° 0.1 mm 4 mps 741 mmHg 43%
    13:00 +1°C° 0.1 mm 4 mps 741 mmHg 42%
    14:00 +1°C° 0.1 mm 4 mps 741 mmHg 41%
    15:00 +2°C° 0 mm 3 mps 741 mmHg 40%
    16:00 +2°C° 0 mm 3 mps 741 mmHg 39%
    17:00 +2°C° 0 mm 3 mps 741 mmHg 38%
    18:00 +1°C° 0 mm 3 mps 741 mmHg 42%
    19:00 +1°C° 0 mm 2 mps 742 mmHg 46%
    20:00 -1°C° 0 mm 2 mps 742 mmHg 50%
    21:00 -1°C° 0 mm 2 mps 742 mmHg 51%
    22:00 0°C° 0 mm 1 mps 742 mmHg 52%
    23:00 0°C° 0 mm 1 mps 742 mmHg 53%

    1 April, Wednesday

    Time Temperature Precipitation Wind Pressure Humidity
    00:00 0°C° 0 mm 1 mps 742 mmHg 53%
    01:00 0°C° 0 mm 1 mps 742 mmHg 53%
    02:00 0°C° 0 mm 1 mps 742 mmHg 53%
    03:00 -1°C° 0 mm 1 mps 742 mmHg 53%
    04:00 -1°C° 0 mm 1 mps 742 mmHg 54%
    05:00 -1°C° 0 mm 1 mps 742 mmHg 54%
    06:00 -2°C° 0 mm 2 mps 742 mmHg 50%
    07:00 -1°C° 0 mm 2 mps 742 mmHg 46%
    08:00 +1°C° 0 mm 2 mps 742 mmHg 42%
    09:00 +2°C° 0 mm 2 mps 742 mmHg 38%
    10:00 +3°C° 0 mm 2 mps 741 mmHg 33%
    11:00 +3°C° 0 mm 3 mps 741 mmHg 28%
    12:00 +3°C° 0 mm 3 mps 740 mmHg 28%
    13:00 +4°C° 0 mm 3 mps 740 mmHg 28%
    14:00 +4°C° 0 mm 3 mps 740 mmHg 27%
    15:00 +4°C° 0 mm 3 mps 739 mmHg 30%
    16:00 +4°C° 0 mm 4 mps 738 mmHg 33%
    17:00 +4°C° 0 mm 4 mps 738 mmHg 36%
    18:00 +3°C° 0 mm 3 mps 738 mmHg 42%
    19:00 +2°C° 0 mm 3 mps 738 mmHg 48%
    20:00 +2°C° 0 mm 2 mps 738 mmHg 54%
    21:00 +1°C° 0 mm 2 mps 738 mmHg 56%
    22:00 +1°C° 0 mm 2 mps 738 mmHg 58%
    23:00 -1°C° 0 mm 2 mps 738 mmHg 60%

    2 April, Thursday

    Time Temperature Precipitation Wind Pressure Humidity
    00:00 -1°C° 0 mm 2 mps 737 mmHg 61%
    01:00 -1°C° 0 mm 2 mps 737 mmHg 61%
    02:00 -1°C° 0 mm 2 mps 737 mmHg 62%
    03:00 -1°C° 0 mm 2 mps 737 mmHg 63%
    04:00 -1°C° 0 mm 2 mps 736 mmHg 64%
    05:00 -2°C° 0 mm 2 mps 736 mmHg 65%
    06:00 0°C° 0 mm 3 mps 736 mmHg 60%
    07:00 +1°C° 0 mm 3 mps 736 mmHg 55%
    08:00 +1°C° 0 mm 4 mps 736 mmHg 50%
    09:00 +3°C° 0 mm 4 mps 736 mmHg 46%
    10:00 +4°C° 0 mm 4 mps 736 mmHg 43%
    11:00 +5°C° 0 mm 4 mps 735 mmHg 39%
    12:00 +6°C° 0 mm 5 mps 735 mmHg 39%
    13:00 +7°C° 0 mm 5 mps 735 mmHg 38%
    14:00 +7°C° 0 mm 5 mps 735 mmHg 37%
    15:00 +7°C° 0 mm 5 mps 735 mmHg 38%
    16:00 +7°C° 0 mm 5 mps 734 mmHg 39%
    17:00 +7°C° 0 mm 4 mps 734 mmHg 40%
    18:00 +6°C° 0 mm 4 mps 734 mmHg 45%
    19:00 +5°C° 0 mm 3 mps 734 mmHg 51%
    20:00 +4°C° 0 mm 2 mps 734 mmHg 56%
    21:00 +4°C° 0 mm 2 mps 734 mmHg 59%
    22:00 +4°C° 0 mm 2 mps 734 mmHg 61%
    23:00 +3°C° 0 mm 2 mps 735 mmHg 63%

    3 April, Friday

    Time Temperature Precipitation Wind Pressure Humidity
    00:00 +2°C° 0 mm 3 mps 735 mmHg 64%
    01:00 +2°C° 0 mm 3 mps 735 mmHg 66%
    02:00 +1°C° 0 mm 3 mps 735 mmHg 68%
    03:00 +1°C° 0 mm 3 mps 735 mmHg 70%
    04:00 +1°C° 0 mm 3 mps 734 mmHg 72%
    05:00 0°C° 0 mm 3 mps 734 mmHg 73%
    06:00 +1°C° 0 mm 3 mps 735 mmHg 70%
    07:00 +2°C° 0 mm 3 mps 735 mmHg 67%
    08:00 +3°C° 0 mm 4 mps 735 mmHg 63%
    09:00 +5°C° 0 mm 4 mps 735 mmHg 59%
    10:00 +6°C° 0 mm 4 mps 735 mmHg 54%
    11:00 +8°C° 0 mm 4 mps 735 mmHg 49%
    12:00 +8°C° 0 mm 5 mps 735 mmHg 47%
    13:00 +9°C° 0 mm 5 mps 735 mmHg 46%
    14:00 +10°C° 0 mm 5 mps 734 mmHg 44%
    15:00 +9°C° 0 mm 5 mps 734 mmHg 44%
    16:00 +9°C° 0 mm 5 mps 734 mmHg 44%
    17:00 +9°C° 0 mm 5 mps 733 mmHg 44%
    18:00 +8°C° 0 mm 4 mps 733 mmHg 48%
    19:00 +8°C° 0 mm 3 mps 733 mmHg 52%
    20:00 +5°C° 0 mm 3 mps 733 mmHg 56%
    21:00 +5°C° 0 mm 3 mps 734 mmHg 56%
    22:00 +4°C° 0 mm 3 mps 734 mmHg 57%
    23:00 +4°C° 0 mm 3 mps 734 mmHg 57%
    Show more